Weather History for Lakeville, MN

Change the Weather History Date:

Tuesday, December 28, 2010

  Actual Average Record
Temperature  
Mean Temperature 22 °F -  
Max Temperature 32 °F 24 °F 42 °F (1984)
Min Temperature 12 °F 9 °F -15 °F (1993)
Degree Days  
Heating Degree Days 43    
Moisture  
Dew Point 15 °F    
Average Humidity 79    
Maximum Humidity 100    
Minimum Humidity 55    
Precipitation  
Precipitation 0.00 in - - ()
Sea Level Pressure  
Sea Level Pressure 29.93 in    
Wind  
Wind Speed 3 mph (SW)    
Max Wind Speed 9 mph    
Max Gust Speed -    
Visibility 9 miles    
Events      
Averages and records for this station are not official NWS values.
T = Trace of Precipitation, MM = Missing Value Source: NWS Daily Summary

Daily Weather History Graph

Daily Weather History Graph

Search for Another Location

Airport:

Trip Planner

Search our weather history database for the weather conditions in past years. The results will help you decide how hot, cold, wet, or windy it might be!

Date:

Astronomy

Dec. 28, 2010 Rise Set
Actual Time 7:49 AM CST 4:39 PM CST
Civil Twilight 7:15 AM CST 5:13 PM CST
Nautical Twilight 6:38 AM CST 5:50 PM CST
Astronomical Twilight 6:03 AM CST 6:25 PM CST
Moon 12:38 AM CST (12/28) 11:46 AM CST (12/28)
Length of Visible Light 9h 57m
Length of Day
8h 50m
Last Quarter, 44% of the Moon is Illuminated
Dec 28
Last Quarter
Jan 4
New
Jan 12
First Quarter
Jan 19
Full
Jan 26
Last Quarter

Hourly Weather History & Observations

Time (CST) Temp. Windchill Dew Point Humidity Pressure Visibility Wind Dir Wind Speed Gust Speed Precip Events Conditions
12:13 AM 15.8 °F - 15.8 °F 100% 29.98 in 5.0 mi Calm Calm - N/A   Clear
12:34 AM 15.8 °F 8.6 °F 15.8 °F 100% 29.98 in 5.0 mi SW 4.6 mph - N/A   Scattered Clouds
12:53 AM 15.8 °F 10.2 °F 15.8 °F 100% 29.98 in 5.0 mi SW 3.5 mph - N/A   Scattered Clouds
1:13 AM 15.8 °F - 14.0 °F 93% 29.98 in 5.0 mi Calm Calm - N/A   Clear
1:34 AM 14.0 °F - 12.2 °F 93% 29.97 in 5.0 mi Calm Calm - N/A   Clear
1:53 AM 12.2 °F 4.3 °F 12.2 °F 100% 29.97 in 5.0 mi South 4.6 mph - N/A   Clear
2:13 AM 12.2 °F 4.3 °F 12.2 °F 100% 29.96 in 5.0 mi SW 4.6 mph - N/A   Clear
2:34 AM 14.0 °F 8.2 °F 12.2 °F 93% 29.97 in 5.0 mi SW 3.5 mph - N/A   Clear
2:53 AM 14.0 °F 8.2 °F 12.2 °F 93% 29.97 in 5.0 mi SW 3.5 mph - N/A   Clear
3:14 AM 14.0 °F - 12.2 °F 93% 29.96 in 5.0 mi Calm Calm - N/A   Clear
3:33 AM 14.0 °F - 12.2 °F 93% 29.96 in 5.0 mi Calm Calm - N/A   Clear
3:53 AM 14.0 °F 5.1 °F 12.2 °F 93% 29.96 in 7.0 mi WSW 5.8 mph - N/A   Clear
4:13 AM 14.0 °F - 12.2 °F 93% 29.95 in 7.0 mi Calm Calm - N/A   Clear
4:33 AM 14.0 °F - 12.2 °F 93% 29.95 in 7.0 mi Calm Calm - N/A   Clear
4:54 AM 12.2 °F 6.1 °F 10.4 °F 92% 29.95 in 7.0 mi West 3.5 mph - N/A   Clear
5:13 AM 12.2 °F 2.9 °F 10.4 °F 92% 29.94 in 7.0 mi SSW 5.8 mph - N/A   Clear
5:33 AM 15.8 °F 10.2 °F 14.0 °F 93% 29.95 in 10.0 mi WSW 3.5 mph - N/A   Clear
5:54 AM 14.0 °F - 12.2 °F 93% 29.95 in 10.0 mi Calm Calm - N/A   Clear
6:13 AM 15.8 °F - 12.2 °F 86% 29.95 in 10.0 mi Calm Calm - N/A   Clear
6:33 AM 15.8 °F 10.2 °F 12.2 °F 86% 29.95 in 10.0 mi WSW 3.5 mph - N/A   Clear
6:53 AM 15.8 °F 10.2 °F 12.2 °F 86% 29.95 in 10.0 mi WSW 3.5 mph - N/A   Clear
7:13 AM 17.6 °F 10.7 °F 14.0 °F 86% 29.95 in 10.0 mi WSW 4.6 mph - N/A   Clear
7:34 AM 17.6 °F 9.3 °F 14.0 °F 86% 29.95 in 10.0 mi WSW 5.8 mph - N/A   Clear
8:13 AM 17.6 °F 10.7 °F 14.0 °F 86% 29.95 in 10.0 mi WSW 4.6 mph - N/A   Clear
8:34 AM 17.6 °F 12.3 °F 14.0 °F 86% 29.96 in 10.0 mi WSW 3.5 mph - N/A   Clear
9:13 AM 21.2 °F 13.6 °F 15.8 °F 80% 29.96 in 10.0 mi WSW 5.8 mph - N/A   Clear
9:34 AM 23.0 °F 14.7 °F 15.8 °F 74% 29.96 in 10.0 mi WSW 6.9 mph - N/A   Clear
9:53 AM 24.8 °F 16.1 °F 15.8 °F 69% 29.96 in 10.0 mi WSW 8.1 mph - N/A   Clear
10:13 AM 24.8 °F 16.9 °F 15.8 °F 69% 29.96 in 10.0 mi WSW 6.9 mph - N/A   Clear
10:34 AM 24.8 °F 16.9 °F 15.8 °F 69% 29.95 in 10.0 mi WSW 6.9 mph - N/A   Clear
10:53 AM 26.6 °F 17.5 °F 15.8 °F 64% 29.95 in 10.0 mi WSW 9.2 mph - N/A   Clear
11:14 AM 26.6 °F 18.2 °F 15.8 °F 64% 29.95 in 10.0 mi WSW 8.1 mph - N/A   Clear
11:34 AM 26.6 °F 17.5 °F 15.8 °F 64% 29.95 in 10.0 mi WSW 9.2 mph - N/A   Clear
11:53 AM 26.6 °F 17.5 °F 15.8 °F 64% 29.94 in 10.0 mi WSW 9.2 mph - N/A   Clear
12:14 PM 28.4 °F 20.4 °F 15.8 °F 59% 29.93 in 10.0 mi WSW 8.1 mph - N/A   Clear
12:33 PM 28.4 °F 20.4 °F 17.6 °F 64% 29.92 in 10.0 mi WSW 8.1 mph - N/A   Clear
12:53 PM 28.4 °F 23.3 °F 17.6 °F 64% 29.92 in 10.0 mi WSW 4.6 mph - N/A   Clear
1:14 PM 30.2 °F 25.4 °F 17.6 °F 60% 29.91 in 10.0 mi WSW 4.6 mph - N/A   Clear
1:33 PM 30.2 °F 24.3 °F 17.6 °F 60% 29.91 in 10.0 mi West 5.8 mph - N/A   Clear
1:53 PM 30.2 °F 22.6 °F 17.6 °F 60% 29.90 in 10.0 mi WSW 8.1 mph - N/A   Clear
2:13 PM 30.2 °F - 17.6 °F 60% 29.90 in 10.0 mi Calm Calm - N/A   Clear
2:34 PM 32.0 °F 28.7 °F 17.6 °F 55% 29.90 in 10.0 mi SW 3.5 mph - N/A   Clear
2:53 PM 32.0 °F - 17.6 °F 55% 29.90 in 10.0 mi Calm Calm - N/A   Clear
3:34 PM 30.2 °F - 17.6 °F 60% 29.89 in 10.0 mi Calm Calm - N/A   Clear
4:13 PM 28.4 °F - 15.8 °F 59% 29.89 in 10.0 mi Calm Calm - N/A   Clear
4:33 PM 26.6 °F - 15.8 °F 64% 29.89 in 10.0 mi Calm Calm - N/A   Clear
4:53 PM 19.4 °F - 12.2 °F 74% 29.89 in 10.0 mi Calm Calm - N/A   Clear
5:33 PM 23.0 °F 15.8 °F 15.8 °F 74% 29.89 in 10.0 mi SSW 5.8 mph - N/A   Clear
5:54 PM 23.0 °F 14.7 °F 15.8 °F 74% 29.89 in 10.0 mi SSW 6.9 mph - N/A   Clear
6:13 PM 21.2 °F 12.6 °F 15.8 °F 80% 29.88 in 10.0 mi SSW 6.9 mph - N/A   Clear
6:34 PM 19.4 °F 11.5 °F 15.8 °F 86% 29.88 in 10.0 mi South 5.8 mph - N/A   Clear
6:53 PM 21.2 °F 14.9 °F 15.8 °F 80% 29.87 in 10.0 mi South 4.6 mph - N/A   Clear
7:13 PM 21.2 °F 10.9 °F 15.8 °F 80% 29.86 in 10.0 mi South 9.2 mph - N/A   Clear
7:33 PM 21.2 °F 12.6 °F 15.8 °F 80% 29.85 in 10.0 mi South 6.9 mph - N/A   Clear
7:53 PM 21.2 °F 14.9 °F 15.8 °F 80% 29.84 in 10.0 mi SSW 4.6 mph - N/A   Clear
8:33 PM 21.2 °F 14.9 °F 15.8 °F 80% 29.82 in 10.0 mi SSW 4.6 mph - N/A   Clear
8:53 PM 21.2 °F 13.6 °F 15.8 °F 80% 29.82 in 10.0 mi SSW 5.8 mph - N/A   Clear
9:14 PM 23.0 °F 13.1 °F 15.8 °F 74% 29.81 in 10.0 mi SSW 9.2 mph - N/A   Clear
9:33 PM 24.8 °F 16.1 °F 15.8 °F 69% 29.81 in 10.0 mi SSW 8.1 mph - N/A   Clear
9:53 PM 23.0 °F 11.1 °F 17.6 °F 80% 29.78 in 10.0 mi South 12.7 mph - N/A   Clear
10:13 PM 24.8 °F 19.1 °F 17.6 °F 74% 29.79 in 10.0 mi South 4.6 mph - N/A   Clear
10:33 PM 23.0 °F 12.4 °F 17.6 °F 80% 29.79 in 10.0 mi South 10.4 mph - N/A   Clear
10:54 PM 24.8 °F 12.9 °F 17.6 °F 74% 29.77 in 10.0 mi South 13.8 mph 18.4 mph N/A   Clear
11:13 PM 24.8 °F 11.9 °F 17.6 °F 74% 29.76 in 10.0 mi South 16.1 mph 20.7 mph N/A   Clear
11:33 PM 24.8 °F 13.4 °F 17.6 °F 74% 29.76 in 10.0 mi SSW 12.7 mph 19.6 mph N/A   Clear
11:54 PM 24.8 °F 12.4 °F 15.8 °F 69% 29.74 in 10.0 mi South 15.0 mph 20.7 mph N/A   Clear